[[{"header":{"parameterUnit":"m.s-1","parameterCategory":1,"la1":30.2991,"la2":30.254,"lo1":-89.0895,"lo2":-89.0444,"dy":0.0017,"dx":0.0017,"nx":28,"ny":28,"refTime":"2024-04-23T09:00:00:Z","depth":0,"parameterNumber":2,"parameterNumberName":"U-component_of_WINDS"},"data":[0,0,0,0,0,0,0,0,0,0,0,0,0,0,0,0,0,0,0,0,0,0,0,0,0,0,0,0,0,0,0,0,0,0,0,0,0,0,0,0,0,0,0,0,0,0,0,0,0,0,0,0,0,0,0,0,0,0,1.7832,1.7832,0,1.7891,1.7892,1.7893,1.789,1.7889,1.7888,1.7887,1.7947,1.7949,1.7952,0,0,0,0,0,0,0,0,0,0,0,0,0,1.7712,1.7714,1.7832,1.7832,1.7833,1.7891,1.7892,1.7893,1.789,1.7889,1.7888,1.7887,1.7946,1.7949,1.7952,0,0,0,0,0,0,0,0,0,0,0,0,0,1.7767,1.7715,1.7831,1.7839,1.784,1.7891,1.7892,1.7893,1.789,1.7889,1.7888,1.7887,1.7945,1.7949,1.7952,1.8,0,0,1.7963,1.7965,0,0,0,0,0,0,0,0,1.7764,1.7771,1.7837,1.7838,1.784,1.7882,1.7872,1.7929,1.7891,1.7871,1.7887,1.7886,1.7926,1.7931,1.7945,1.8003,1.8005,1.7964,1.7966,1.7967,1.7968,0,0,0,0,0,0,0,1.776,1.7769,1.7855,1.7838,1.784,1.7838,1.7844,1.7882,1.7905,1.7873,1.7873,1.788,1.7927,1.7942,1.7947,1.8006,1.7963,1.7967,1.7969,1.797,1.8102,1.8103,0,0,0,0,0,0,1.7755,1.7765,1.7853,1.7857,1.7798,1.7841,1.7848,1.787,1.7905,1.7909,1.7881,1.7879,1.7936,1.7943,1.7949,1.8004,1.7967,1.7971,1.7973,1.8101,1.8102,1.8104,0,0,0,0,0,0,1.7752,1.7763,1.7851,1.7811,1.7822,1.7845,1.7868,1.7871,1.7887,1.7911,1.7915,1.7892,1.7936,1.7944,1.7986,1.8006,1.7972,1.7975,1.8099,1.8101,1.8103,1.8117,0,0,0,0,0,0,1.7749,1.7762,1.7781,1.7812,1.7824,1.7889,1.787,1.7874,1.7893,1.7892,1.7923,1.7926,1.7935,1.7981,1.799,1.8011,1.7978,1.8097,1.81,1.8102,1.8115,1.8119,1.8123,0,0,0,0,0,1.7745,1.7783,1.7782,1.7792,1.7849,1.789,1.7897,1.7907,1.7895,1.7913,1.7928,1.7925,1.8003,1.7986,1.7996,1.8018,1.8096,1.8099,1.8102,1.8113,1.8118,1.8123,0,0,0,0,0,0,1.7754,1.7787,1.7786,1.7836,1.786,1.7889,1.7913,1.7913,1.794,1.7938,1.7949,1.7956,1.7998,1.8012,1.7992,1.8064,1.8048,1.8053,1.8053,1.8058,1.8062,1.8057,1.7981,0,0,0,0,0,1.7761,1.7793,1.782,1.7861,1.7873,1.7891,1.7909,1.7915,1.794,1.795,1.7968,1.7992,1.8022,1.8041,1.807,1.8117,1.8123,1.8137,1.8141,1.8145,1.8148,1.8172,1.8178,1.8114,1.8114,1.8114,0,0,1.7778,1.78,1.7819,1.7863,1.7882,1.7913,1.79,1.7933,1.7955,1.7955,1.7996,1.801,1.8037,1.8082,1.8103,1.8095,1.8167,1.8148,1.8151,1.8153,1.8176,1.8182,1.8187,1.8116,1.8115,1.8115,0,0,1.7823,1.7844,1.7879,1.7898,1.7927,1.7939,1.7947,1.7976,1.7986,1.8027,1.8026,1.8053,1.8104,1.8123,1.8139,1.8189,1.8186,1.8198,1.8219,1.8242,1.8247,1.8251,1.8267,1.8272,1.8202,1.8202,1.8202,0,1.7839,1.7886,1.7897,1.793,1.7948,1.7949,1.7984,1.8002,1.8039,1.8051,1.8042,1.8105,1.8124,1.8172,1.8183,1.8198,1.8206,1.8194,1.8245,1.825,1.8254,1.8269,1.8275,1.8203,1.8203,1.8203,1.8203,0,1.7903,1.7936,1.796,1.7995,1.8017,1.8051,1.8065,1.8085,1.8089,1.81,1.8141,1.8164,1.8196,1.8208,1.8212,1.8255,1.8249,1.8243,1.8227,1.8261,1.8275,1.8281,1.8205,1.8204,1.8204,1.8204,0,0,1.7955,1.7995,1.8004,1.8019,1.805,1.8075,1.8108,1.814,1.8155,1.8181,1.8207,1.825,1.8244,1.8262,1.8268,1.8288,1.8323,1.8279,1.828,1.8284,1.837,1.8373,1.8379,1.8322,1.8323,1.8324,1.8367,0,1.8001,1.806,1.807,1.8121,1.815,1.815,1.8179,1.82,1.8212,1.8237,1.825,1.8279,1.827,1.828,1.8301,1.8315,1.834,1.8312,1.8345,1.8346,1.8336,1.8387,1.8391,1.843,1.8372,1.8373,1.8374,0,1.8064,1.809,1.8143,1.8169,1.8182,1.8207,1.8235,1.826,1.8284,1.8291,1.831,1.8313,1.8346,1.8329,1.8373,1.8353,1.8368,1.8376,1.8378,1.838,1.8361,1.8388,1.8443,1.8448,1.8383,1.8383,1.8382,0,1.8093,1.8142,1.818,1.8193,1.8225,1.8242,1.8256,1.8279,1.8296,1.8321,1.8332,1.836,1.8375,1.8396,1.8406,1.8393,1.8448,1.8433,1.8453,1.8453,1.8463,1.8462,1.8519,1.8476,1.8476,1.8476,1.8475,0,1.8142,1.8175,1.8193,1.8216,1.8252,1.8262,1.8296,1.831,1.833,1.8354,1.8357,1.838,1.8392,1.8416,1.8424,1.8458,1.8465,1.847,1.8472,1.8469,1.8468,1.8477,1.8474,1.8477,1.8477,1.8476,1.8476,0,1.8181,1.8195,1.8236,1.8262,1.8269,1.8294,1.8316,1.8337,1.8349,1.8379,1.8387,1.8405,1.8433,1.8445,1.8481,1.8486,1.8523,1.8524,1.8515,1.8515,1.8534,1.8531,1.8596,1.8605,1.8558,1.8559,1.8559,0,1.8211,1.8235,1.8264,1.8281,1.8295,1.8322,1.8339,1.835,1.8368,1.8396,1.8414,1.8442,1.8466,1.8511,1.8526,1.8552,1.8552,1.8573,1.8556,1.8552,1.855,1.8547,1.8549,1.8576,1.8576,1.8577,1.8577,0,1.8261,1.8266,1.8292,1.8319,1.834,1.8363,1.8384,1.8397,1.8411,1.8431,1.846,1.8478,1.8513,1.8541,1.8568,1.8581,1.858,1.8582,1.8588,1.8584,1.8578,1.8579,1.8521,1.858,1.858,1.858,1.858,1.8579,1.8295,1.8315,1.8338,1.8366,1.8383,1.8403,1.8424,1.8438,1.8462,1.8492,1.8496,1.8527,1.8548,1.8584,1.8598,1.8621,1.8616,1.8625,1.8626,1.8628,1.8628,1.8575,1.8626,1.8626,1.8626,1.8626,1.8626,0,1.8343,1.8357,1.8383,1.8413,1.8434,1.8433,1.8456,1.8473,1.85,1.852,1.8543,1.8575,1.8601,1.8618,1.8644,1.8659,1.866,1.8666,1.8664,1.8666,1.8632,1.8624,1.8665,1.8665,1.8665,1.8665,1.8665,1.8665,1.8371,1.8405,1.8413,1.8455,1.847,1.8499,1.8512,1.853,1.8546,1.8582,1.8603,1.8614,1.8632,1.866,1.8683,1.8687,1.8696,1.8702,1.8705,1.8673,1.8669,1.8665,1.8657,1.8704,1.8704,1.8737,1.8737,1.8737]},{"header":{"parameterUnit":"m.s-1","parameterCategory":1,"la1":30.2991,"la2":30.254,"lo1":-89.0895,"lo2":-89.0444,"dy":0.0017,"dx":0.0017,"nx":28,"ny":28,"refTime":"2024-04-23T09:00:00:Z","depth":0,"parameterNumber":3,"parameterNumberName":"V-component_of_WINDS"},"data":[0,0,0,0,0,0,0,0,0,0,0,0,0,0,0,0,0,0,0,0,0,0,0,0,0,0,0,0,0,0,0,0,0,0,0,0,0,0,0,0,0,0,0,0,0,0,0,0,0,0,0,0,0,0,0,0,0,0,3.6528,3.6528,0,3.6545,3.6545,3.6546,3.6476,3.6474,3.6472,3.647,3.6487,3.6489,3.6491,0,0,0,0,0,0,0,0,0,0,0,0,0,3.6433,3.6435,3.6528,3.6528,3.6529,3.6545,3.6545,3.6546,3.6477,3.6474,3.6472,3.6469,3.6486,3.6489,3.6492,0,0,0,0,0,0,0,0,0,0,0,0,0,3.6465,3.6436,3.6528,3.6496,3.6493,3.6545,3.6545,3.6546,3.6477,3.6474,3.6471,3.6468,3.6485,3.6489,3.6492,3.6575,0,0,3.6503,3.6504,0,0,0,0,0,0,0,0,3.6463,3.6468,3.6501,3.6498,3.6496,3.6506,3.6518,3.6555,3.6478,3.6483,3.647,3.6467,3.6496,3.6498,3.6508,3.6576,3.6576,3.6503,3.6505,3.6507,3.6508,0,0,0,0,0,0,0,3.6461,3.6467,3.6535,3.6501,3.6498,3.648,3.6481,3.6525,3.6506,3.6483,3.6478,3.6481,3.6493,3.6505,3.6508,3.6577,3.6503,3.6506,3.6508,3.651,3.671,3.6713,0,0,0,0,0,0,3.6463,3.6466,3.6534,3.6535,3.6471,3.6484,3.6486,3.6505,3.6506,3.6503,3.6483,3.6477,3.65,3.6504,3.6508,3.6603,3.6507,3.651,3.6512,3.6707,3.6711,3.6714,0,0,0,0,0,0,3.6461,3.647,3.6534,3.6499,3.6506,3.6489,3.6512,3.6507,3.6518,3.6506,3.6502,3.6498,3.6498,3.6503,3.6558,3.6602,3.6512,3.6515,3.6703,3.6708,3.6713,3.6795,0,0,0,0,0,0,3.6459,3.647,3.6502,3.65,3.6508,3.6585,3.6515,3.651,3.6525,3.6517,3.6519,3.6517,3.6496,3.6553,3.6562,3.6606,3.6518,3.6699,3.6706,3.6711,3.6788,3.6802,3.6813,0,0,0,0,0,3.6456,3.6525,3.6504,3.6512,3.6548,3.6587,3.6591,3.6567,3.6529,3.656,3.6552,3.6516,3.6597,3.656,3.6568,3.6614,3.6696,3.6704,3.6711,3.6782,3.6799,3.6813,0,0,0,0,0,0,3.6532,3.6524,3.6501,3.6571,3.6581,3.6575,3.6614,3.6586,3.6605,3.6598,3.6566,3.6567,3.6627,3.6626,3.6585,3.6693,3.664,3.6649,3.6691,3.6707,3.6719,3.6717,3.652,0,0,0,0,0,3.6557,3.659,3.6581,3.6644,3.665,3.6632,3.6648,3.6628,3.6636,3.6639,3.6635,3.6644,3.667,3.6689,3.6713,3.6788,3.6786,3.6823,3.6836,3.6847,3.6855,3.6891,3.6907,3.6738,3.6738,3.6738,0,0,3.6609,3.6609,3.6632,3.666,3.6664,3.6698,3.6635,3.6675,3.6699,3.6645,3.6696,3.6694,3.6701,3.6765,3.6794,3.6767,3.6901,3.6856,3.6864,3.6867,3.69,3.6916,3.6931,3.6743,3.6742,3.6742,0,0,3.6721,3.6725,3.6776,3.6782,3.679,3.6776,3.6789,3.6788,3.6784,3.6835,3.6794,3.6823,3.687,3.6876,3.6886,3.6998,3.6965,3.7007,3.7073,3.7109,3.7122,3.7134,3.7171,3.7186,3.7015,3.7015,3.7015,0,3.6784,3.6834,3.6807,3.6848,3.686,3.6813,3.6863,3.687,3.6886,3.6895,3.6865,3.6921,3.6923,3.6987,3.7014,3.7025,3.7036,3.7005,3.7123,3.7134,3.7144,3.718,3.7194,3.702,3.7019,3.7019,3.7018,0,3.691,3.6946,3.6986,3.7001,3.7018,3.7064,3.7043,3.7063,3.7041,3.7031,3.7082,3.7083,3.7105,3.7119,3.7099,3.718,3.7162,3.7128,3.7074,3.7166,3.7198,3.7212,3.7027,3.7025,3.7024,3.7022,0,0,3.7071,3.7069,3.7084,3.7089,3.7093,3.7119,3.7162,3.7183,3.7201,3.7213,3.7246,3.7287,3.7254,3.7265,3.7245,3.7277,3.7363,3.7238,3.7238,3.726,3.7449,3.7473,3.749,3.7342,3.7344,3.7346,3.7448,0,3.7178,3.7252,3.7227,3.7301,3.7331,3.7286,3.7323,3.7329,3.7321,3.7344,3.7335,3.7363,3.732,3.7325,3.7355,3.7346,3.74,3.7339,3.7371,3.7373,3.7369,3.7507,3.7533,3.7629,3.7461,3.7463,3.7464,0,3.7314,3.733,3.7406,3.7403,3.7415,3.7448,3.7465,3.7489,3.7494,3.7485,3.7497,3.7469,3.7509,3.7456,3.751,3.7469,3.7481,3.7479,3.7482,3.7482,3.7423,3.751,3.766,3.7673,3.7485,3.7483,3.7482,0,3.742,3.7461,3.7511,3.7517,3.7515,3.7539,3.7539,3.7541,3.7555,3.7569,3.7577,3.7597,3.7607,3.7622,3.76,3.7564,3.7657,3.7602,3.7649,3.765,3.767,3.7668,3.7822,3.7681,3.7681,3.7681,3.768,0,3.7541,3.7589,3.7558,3.7589,3.7641,3.7612,3.7664,3.7659,3.7661,3.7689,3.7652,3.7679,3.7649,3.7673,3.7656,3.7702,3.7708,3.7701,3.7695,3.7703,3.7703,3.7709,3.7701,3.7684,3.7683,3.7683,3.7682,0,3.7668,3.765,3.7701,3.7694,3.7693,3.7732,3.7725,3.7753,3.7741,3.7777,3.7784,3.7766,3.7792,3.7771,3.7798,3.7786,3.7846,3.7832,3.7844,3.784,3.7887,3.7882,3.8048,3.8067,3.7916,3.7917,3.7919,0,3.7746,3.7782,3.7778,3.7794,3.7796,3.7823,3.7836,3.7808,3.7824,3.7831,3.7857,3.788,3.7897,3.7941,3.7929,3.7948,3.7933,3.799,3.7936,3.7942,3.7931,3.7929,3.7931,3.8001,3.8002,3.8004,3.8005,0,3.7885,3.7873,3.7894,3.7911,3.7928,3.794,3.7949,3.7964,3.7936,3.7955,3.7981,3.7994,3.8019,3.8042,3.8057,3.8056,3.8026,3.8022,3.8034,3.8041,3.8045,3.8041,3.7872,3.8018,3.8017,3.8016,3.8015,3.8015,3.7988,3.8017,3.8018,3.8041,3.8045,3.8054,3.8078,3.8069,3.809,3.8109,3.8091,3.8122,3.8124,3.8141,3.8144,3.8167,3.8143,3.8161,3.8165,3.8169,3.8174,3.8043,3.817,3.817,3.8169,3.8169,3.8169,0,3.8123,3.8121,3.8143,3.8156,3.8174,3.8144,3.8152,3.8169,3.8196,3.8201,3.8217,3.8246,3.8267,3.8257,3.8276,3.8296,3.8282,3.8302,3.8299,3.8299,3.8196,3.8183,3.8312,3.8312,3.8312,3.8312,3.8312,3.8312,3.8195,3.8241,3.8229,3.8276,3.8273,3.8303,3.8309,3.8317,3.832,3.8354,3.8371,3.8364,3.8362,3.838,3.8397,3.8394,3.8401,3.8426,3.8417,3.832,3.8306,3.8293,3.828,3.8428,3.8428,3.8517,3.8518,3.8519]}]]